sat.trackr.live / text

‹ back to catalog

STARLINK-3675

NORAD 51963 · 2022-025H

PAYLOAD ACTIVE UNKNOWN

§ Identity

Operator
Country
US
Launch date
2022-03-09
Launch site
AFETR
Launch vehicle
Mass (kg)
RCS (m²)

Purposes: comms

External: N2YO · Heavens-Above · Gunter

§ Orbital elements

Epoch: 2026-09-19T10:53:09.661056Z

Period
94.01 min
Inclination
53.1607°
Eccentricity
0.0001365
Mean motion
15.31698282 rev/d
Perigee alt
469.8 km
Apogee alt
471.7 km
Semi-major
6,848.9 km
B*
1.3117e-5
RAAN
191.8151°
Arg perigee
95.6414°
Mean anomaly
264.4743°
Rev number
25,086

§ Raw data

STARLINK-36751 51963U 22025H   26262.45358404  .00000042  00000+0  13117-4 0  99982 51963  53.1607 191.8151 0001365  95.6414 264.4743 15.31698282250864

JSON: /api/v1/satellites/51963 · /tle

For live sub-satellite position, see the globe view (requires WebGL).

§ Visibility from observer

Set your observer location to see the next 7 days of passes ≥ 10°. The values pass through the URL so the page stays shareable.

No JS? Fill the form by hand. The geolocation button needs JavaScript.